USA 40 R/B DEB, 23353

Orbit data source: Space-Track

USA 40 R/B DEB, 23353 is space debris originally from a launch on Tue, 08 Aug 1989 UTC launched from the Air Force Eastern Test Range (AFETR). Debris objects in space refer to the collection of defunct objects orbiting the Earth. Examples of debris include non-operational satellites, rocket bodies, and fragments generated from explosions, collisions, or faulty payload assembly.

Loading next visibility...
Identifier
23353, 1989-061Z
Orbit
Active
Country
Flag of USUS
Related business
Manufacturer
Unknown
Mission
Spacecraft
Bus & Motor
Unknown
Mass
Unknown
Launch date (UTC)
1989-08-08 (37 years ago)
Launch vehicle
Unknown
Launch site
Air Force Eastern Test Range (AFETR)
Object type
Payload
Rocket body
Debris
Shape & HBR
Unknown shape, 0.1 m
Radar Cross Section
Medium (>0.1 m² and <1 m²)

Expand to show TLE details & history
Last TLE update: 3 days ago

TLE from 3 days ago
0 USA 40 R/B DEB
1 23353U 89061Z   26171.15653930  .00006201  00000-0  50684-2 0  9993
2 23353  56.9493  78.7652 2821233 125.6250 264.1219  9.19195247 73081
Epoch: 2026-06-20T03:45Z
TLE epoch observation values (Epoch: 2026-06-20T03:45:24.995Z)
Latitude
-0°
Longitude
114.03585°
Altitude
4,221.654 km
Speed
5.816 km/s
True Right ascension
05h 15m 03s
True Declination
0° 00' 00"
Sunlit
Object was in daylight at epoch
Visualization orbit readout
Latitude
Unknown
Longitude
Unknown
Altitude
Unknown
Speed
Unknown
Apparent Right ascension
Unknown
Apparent Declination
Unknown
Sunlit
N/A
Visualization observer readout
Local Sidereal Time
03:45:52
Azimuth
Unknown
Elevation
Unknown
Doppler factor
Unknown
Orbital elements
Apogee altitude
5,963.728 km
Perigee altitude
532.226 km
Semi-major axis
9,626.114 km
Eccentricity
0.28212
Inclination
56.9493°
RAAN
78.7652°
Arg. of periapsis
125.625°
True anomaly
234.45572°
Mean anomaly
264.1219°
Eccentric anomaly
249.02821°
Mean motion
2.29809 °/min
Orbital period
156.65 mins
BSTAR
0.0050684
Loading maneuver chart data...
Computing Atmospheric mass density...
Loading historical data...
Loading historical data...
Loading historical data...
Loading historical data...
Loading historical data...
Loading historical data...
Loading historical data...

Documentation

Showing up to 5 results
|